Montpelier, VT

3:29 PM EDT on June 24, 2018 (GMT -0400)
Knapp State

Weather History for KMPV - May, 2010

Change the Weather History Date:

Wednesday, May 5, 2010

  Actual Average Record
Temperature  
Mean Temperature 56 °F 50 °F  
Max Temperature 73 °F 62 °F 83 °F (1949)
Min Temperature 41 °F 38 °F 24 °F (1952)
Degree Days  
Heating Degree Days 8 15  
Month to date heating degree days 77  
Since 1 July heating degree days 7781  
Cooling Degree Days 0 0  
Month to date cooling degree days 0  
Year to date cooling degree days 1  
Growing Degree Days 6 (Base 50)    
Moisture  
Dew Point 43 °F    
Average Humidity 59    
Maximum Humidity 96    
Minimum Humidity 34    
Precipitation  
Precipitation 0.00 in 0.11 in 0.59 in (1990)
Month to date precipitation 0.51  
Year to date precipitation 10.05  
Sea Level Pressure  
Sea Level Pressure 29.87 in    
Wind  
Wind Speed 5 mph (WSW)    
Max Wind Speed 12 mph    
Max Gust Speed -    
Visibility 10 miles    
Events      
T = Trace of Precipitation, MM = Missing Value Source: NWS Daily Summary

Daily Weather History Graph

Daily Weather History Graph

Search for Another Location

Airport or City:

Astronomy

May. 05, 2010 Rise Set
Actual Time 5:35 AM EDT 7:58 PM EDT
Civil Twilight 5:03 AM EDT 8:31 PM EDT
Nautical Twilight 4:23 AM EDT 9:11 PM EDT
Astronomical Twilight 3:38 AM EDT 9:56 PM EDT
Moon 1:34 AM EDT (5/5) 11:36 AM EDT (5/5)
Length of Visible Light 15h 27m
Length of Day
14h 22m
Waning Gibbous, 55% of the Moon is Illuminated
May 5
Waning Gibbous
May 6
Last Quarter
May 13
New
May 20
First Quarter
May 27
Full

Hourly Weather History & Observations

Time (EDT) Temp. Windchill Dew Point Humidity Pressure Visibility Wind Dir Wind Speed Gust Speed Precip Events Conditions
12:51 AM 50.0 °F - 42.1 °F 74% 29.84 in 10.0 mi NW 9.2 mph - N/A   Clear
1:51 AM 48.0 °F - 43.0 °F 83% 29.85 in 10.0 mi West 4.6 mph - N/A   Scattered Clouds
2:51 AM 46.9 °F - 42.1 °F 83% 29.86 in 10.0 mi West 4.6 mph - N/A   Clear
3:51 AM 44.1 °F - 42.1 °F 93% 29.89 in 10.0 mi Calm Calm - N/A   Clear
4:51 AM 41.0 °F - 39.9 °F 96% 29.90 in 10.0 mi Calm Calm - N/A   Clear
5:51 AM 44.1 °F 40.8 °F 41.0 °F 89% 29.92 in 10.0 mi WNW 5.8 mph - N/A   Clear
6:51 AM 46.9 °F - 45.0 °F 93% 29.94 in 10.0 mi Calm Calm - N/A   Clear
7:51 AM 54.0 °F - 44.1 °F 69% 29.95 in 10.0 mi North 4.6 mph - N/A   Clear
8:51 AM 55.0 °F - 44.1 °F 67% 29.96 in 10.0 mi NW 3.5 mph - N/A   Clear
9:51 AM 59.0 °F - 42.1 °F 53% 29.95 in 10.0 mi WNW 4.6 mph - N/A   Clear
10:51 AM 60.1 °F - 39.9 °F 47% 29.94 in 10.0 mi Calm Calm - N/A   Partly Cloudy
11:51 AM 62.1 °F - 39.0 °F 43% 29.94 in 10.0 mi WSW 5.8 mph - N/A   Mostly Cloudy
12:51 PM 66.0 °F - 37.0 °F 34% 29.93 in 10.0 mi Variable 6.9 mph - N/A   Mostly Cloudy
1:51 PM 66.0 °F - 41.0 °F 40% 29.91 in 10.0 mi Calm Calm - N/A   Partly Cloudy
2:51 PM 66.9 °F - 39.0 °F 36% 29.89 in 10.0 mi Variable 4.6 mph - N/A   Partly Cloudy
3:51 PM 71.1 °F - 42.1 °F 35% 29.86 in 10.0 mi Calm Calm - N/A   Clear
4:51 PM 72.0 °F - 43.0 °F 35% 29.84 in 10.0 mi WSW 5.8 mph - N/A   Clear
5:51 PM 72.0 °F - 45.0 °F 38% 29.83 in 10.0 mi SSW 8.1 mph - N/A   Scattered Clouds
6:51 PM 70.0 °F - 46.9 °F 44% 29.81 in 10.0 mi South 10.4 mph - N/A   Clear
7:51 PM 68.0 °F - 46.9 °F 47% 29.81 in 10.0 mi South 9.2 mph - N/A   Clear
8:51 PM 64.0 °F - 48.0 °F 56% 29.82 in 10.0 mi SSE 8.1 mph - N/A   Mostly Cloudy
9:51 PM 63.0 °F - 46.9 °F 56% 29.81 in 10.0 mi SSE 6.9 mph - N/A   Clear
10:51 PM 64.9 °F - 46.0 °F 50% 29.78 in 10.0 mi SSW 6.9 mph - N/A   Clear
11:51 PM 64.9 °F - 46.0 °F 50% 29.75 in 10.0 mi South 11.5 mph - N/A   Clear